Find Starlink 5999

NORAD ID: 56909 Int'l Des: 2023-083 Owner: SPXS Country: US Constellation: starlink operational
LEOCIRCULAR

リアルタイム位置

3D地球を読み込み中...

Starlink 5999について

説明を読み込み中...

次回通過

Passes for default location (London). Set your location on the main map for personalized predictions.

高度履歴

Loading altitude history...

軌道要素

1 56909U 23083AK 26105.04477508 .00001016 00000-0 47560-4 0 9998
2 56909 43.0024 225.7517 0001170 274.9912 85.0806 15.26729567157466
Epoch: Apr 15, 2026 • Age: 12 hours

現在のステータス

高度 497.0 km
速度 7.62 km/s
衛星直下点 -40.35°S, 114.31°E
打ち上げ日 Jun 12, 2023
運用期間 2.8 years
タイプ internet

技術仕様

分類 Payload
質量 305.00 kg
乾燥質量 290.00 kg
総質量 305.00 kg
長さ 0.20 m
直径 2.80 m
スパン 9.00 m
形状 Box + pan
製造者 SPXS
バスタイプ Starlink
フェーズステータス In Orbit
所有者/国 SPXS/US

Most Searched